1547758800.36,61664,0.0,0.0,-8.01,-8.89,-8.89,0,*5A
1547758801.57,61665,0.0,0.0,-8.01,-8.85,-8.89,0,*57
1547758802.78,61666,0.0,0.0,-8.01,-8.89,-8.89,0,*58
1547758804.01,61667,0.0,0.0,-7.99,-8.97,-8.89,0,*58
1547758805.24,61668,0.0,0.0,-7.99,-8.97,-8.89,0,*57
1547758806.45,61669,0.0,0.0,-8.01,-8.89,-8.89,0,*57
1547758807.65,61670,0.0,0.0,-8.01,-8.97,-8.89,0,*50
1547758808.86,61671,0.0,0.0,-8.01,-8.89,-8.97,0,*51
1547758810.07,61672,0.0,0.0,-8.01,-8.89,-8.89,0,*5D
1547758811.27,61673,0.0,0.0,-8.01,-8.97,-8.97,0,*5C
1547758812.51,61674,0.0,0.0,-7.99,-8.89,-8.89,0,*55
1547758813.71,61675,0.0,0.0,-8.01,-8.97,-8.89,0,*55
1547758814.94,61676,0.0,0.0,-7.99,-8.97,-8.89,0,*58
1547758816.15,61677,0.0,0.0,-8.01,-8.89,-8.89,0,*58
1547758817.36,61678,0.0,0.0,-8.01,-8.89,-8.89,0,*57
1547758818.6,61679,0.0,0.0,-7.99,-8.89,-8.89,0,*58
1547758819.81,61680,0.0,0.0,-8.01,-8.89,-8.89,0,*50
1547758821.04,61681,0.0,0.0,-7.99,-8.89,-8.97,0,*50
1547758822.25,61682,0.0,0.0,-8.01,-8.89,-8.89,0,*52
1547758823.46,61683,0.0,0.0,-8.01,-8.89,-8.89,0,*53
1547758824.67,61684,0.0,0.0,-8.01,-8.89,-8.89,0,*54
1547758825.88,61685,0.0,0.0,-8.01,-8.89,-8.89,0,*55
1547758827.12,61686,0.0,0.0,-7.99,-8.89,-8.89,0,*58
1547758828.32,61687,0.0,0.0,-8.01,-8.89,-8.97,0,*58
1547758829.55,61688,0.0,0.0,-7.99,-8.97,-8.97,0,*56
1547758830.78,61689,0.0,0.0,-7.99,-8.97,-8.89,0,*58
1547758832.01,61690,0.0,0.0,-7.99,-8.97,-8.89,0,*50
1547758833.22,61691,0.0,0.0,-8.01,-8.89,-8.89,0,*50
1547758834.42,61692,0.0,0.0,-8.01,-8.97,-8.89,0,*5C
1547758835.63,61693,0.0,0.0,-8.01,-8.89,-8.89,0,*52
1547758836.84,61694,0.0,0.0,-8.01,-8.97,-9.01,0,*5B
1547758838.04,61695,0.0,0.0,-8.01,-8.97,-8.89,0,*5B
1547758839.25,61696,0.0,0.0,-8.01,-8.97,-8.89,0,*58
1547758840.46,61697,0.0,0.0,-8.01,-8.89,-8.89,0,*56
1547758841.69,61698,0.0,0.0,-7.99,-8.85,-8.89,0,*5B
1547758842.93,61699,0.0,0.0,-7.99,-8.85,-8.89,0,*5A
1547758844.17,61700,0.0,0.0,-7.99,-8.85,-8.89,0,*5B
1547758845.4,61701,0.0,0.0,-7.99,-8.89,-8.89,0,*56
1547758846.62,61702,0.0,0.0,-8.01,-8.89,-8.89,0,*5B
1547758847.82,61703,0.0,0.0,-8.01,-8.89,-8.89,0,*5A
1547758849.03,61704,0.0,0.0,-8.01,-8.89,-8.89,0,*5D
1547758850.29,61705,0.0,0.0,-7.99,-8.81,-8.85,0,*56
1547758851.54,61706,0.0,0.0,-7.99,-8.85,-8.81,0,*55
1547758852.8,61707,0.0,0.0,-7.99,-8.85,-8.81,0,*54
1547758854.06,61708,0.0,0.0,-7.99,-8.81,-8.81,0,*5F
1547758855.33,61709,0.0,0.0,-7.99,-8.81,-8.81,0,*5E
1547758856.6,61710,0.0,0.0,-7.99,-8.81,-8.81,0,*56
1547758857.83,61711,0.0,0.0,-8.01,-8.85,-8.81,0,*5D
1547758859.1,61712,0.0,0.0,-7.99,-8.81,-8.81,0,*54
1547758860.34,61713,0.0,0.0,-7.99,-8.85,-8.85,0,*55
1547758861.58,61714,0.0,0.0,-7.97,-8.81,-8.81,0,*5C
1547758862.81,61715,0.0,0.0,-7.99,-8.85,-8.85,0,*53
1547758864.05,61716,0.0,0.0,-7.99,-8.85,-8.85,0,*50
1547758865.29,61717,0.0,0.0,-7.99,-8.85,-8.85,0,*51
1547758866.51,61718,0.0,0.0,-7.95,-8.75,-8.75,0,*52
1547758867.76,61719,0.0,0.0,-7.99,-8.81,-8.85,0,*5B
1547758869.03,61720,0.0,0.0,-7.99,-8.81,-8.81,0,*55
1547758870.3,61721,0.0,0.0,-7.99,-8.81,-8.81,0,*54
1547758871.55,61722,0.0,0.0,-7.99,-8.85,-8.81,0,*53
1547758872.8,61723,0.0,0.0,-7.99,-8.85,-8.81,0,*52
1547758874.04,61724,0.0,0.0,-7.99,-8.85,-8.85,0,*51
1547758875.26,61725,0.0,0.0,-7.97,-8.81,-8.75,0,*55
1547758876.45,61726,0.0,0.0,-7.97,-8.75,-8.75,0,*5D
1547758877.67,61727,0.0,0.0,-7.95,-8.75,-8.63,0,*59
1547758878.88,61728,0.0,0.0,-7.97,-8.81,-8.75,0,*58
1547758880.08,61729,0.0,0.0,-7.97,-8.75,-8.67,0,*51
1547758881.29,61730,0.0,0.0,-7.97,-8.81,-8.75,0,*51
1547758882.51,61731,0.0,0.0,-7.95,-8.71,-8.63,0,*5A
1547758883.73,61732,0.0,0.0,-7.95,-8.75,-8.75,0,*5A
1547758884.92,61733,0.0,0.0,-7.97,-8.75,-8.75,0,*59
1547758886.12,61734,0.0,0.0,-7.97,-8.67,-8.75,0,*5D
1547758887.31,61735,0.0,0.0,-7.97,-8.75,-8.75,0,*5F
1547758888.53,61736,0.0,0.0,-7.95,-8.75,-8.75,0,*5E
1547758889.74,61737,0.0,0.0,-7.95,-8.75,-8.71,0,*5B
1547758890.98,61738,0.0,0.0,-7.97,-8.81,-8.81,0,*52
1547758892.18,61739,0.0,0.0,-7.97,-8.75,-8.75,0,*53
1547758893.42,61740,0.0,0.0,-7.97,-8.81,-8.81,0,*5D
1547758894.61,61741,0.0,0.0,-7.97,-8.75,-8.75,0,*5C
1547758895.85,61742,0.0,0.0,-7.95,-8.75,-8.81,0,*56
1547758897.09,61743,0.0,0.0,-7.97,-8.81,-8.81,0,*5E
1547758898.33,61744,0.0,0.0,-7.95,-8.81,-8.75,0,*50
1547758899.55,61745,0.0,0.0,-7.97,-8.85,-8.81,0,*5C
1547758900.78,61746,0.0,0.0,-7.97,-8.85,-8.81,0,*5F
1547758901.99,61747,0.0,0.0,-7.95,-8.75,-8.75,0,*58
1547758903.23,61748,0.0,0.0,-7.97,-8.81,-8.81,0,*55
1547758904.47,61749,0.0,0.0,-7.97,-8.81,-8.81,0,*54
1547758905.71,61750,0.0,0.0,-7.97,-8.81,-8.81,0,*5C
1547758906.93,61751,0.0,0.0,-7.95,-8.75,-8.75,0,*5F
1547758908.15,61752,0.0,0.0,-7.97,-8.85,-8.81,0,*5A
1547758909.38,61753,0.0,0.0,-7.97,-8.85,-8.81,0,*5B
1547758910.59,61754,0.0,0.0,-7.97,-8.85,-8.85,0,*58
1547758911.85,61755,0.0,0.0,-7.95,-8.81,-8.81,0,*5B
1547758913.09,61756,0.0,0.0,-7.97,-8.81,-8.81,0,*5A
1547758914.35,61757,0.0,0.0,-7.95,-8.81,-8.81,0,*59
1547758915.6,61758,0.0,0.0,-7.95,-8.81,-8.89,0,*5E
1547758916.8,61759,0.0,0.0,-7.97,-8.85,-8.85,0,*55
1547758918.01,61760,0.0,0.0,-7.97,-8.93,-8.93,0,*5F
1547758919.21,61761,0.0,0.0,-7.97,-8.97,-8.97,0,*5E
1547758920.41,61762,0.0,0.0,-7.97,-8.93,-8.97,0,*59
1547758921.61,61763,0.0,0.0,-7.97,-8.93,-8.97,0,*58
1547758922.81,61764,0.0,0.0,-7.97,-8.97,-8.97,0,*5B
1547758924.04,61765,0.0,0.0,-7.95,-9.01,-9.01,0,*58
1547758925.24,61766,0.0,0.0,-7.97,-8.97,-9.05,0,*53
1547758926.5,61767,0.0,0.0,-7.95,-9.01,-9.15,0,*5F
1547758927.72,61768,0.0,0.0,-7.97,-9.11,-9.31,0,*55
1547758928.94,61769,0.0,0.0,-7.97,-9.19,-9.49,0,*53
1547758930.14,61770,0.0,0.0,-7.97,-9.31,-9.79,0,*52
1547758931.37,61771,0.0,0.0,-7.97,-9.57,-10.19,0,*6D
1547758932.63,61772,0.0,0.0,-7.95,-9.97,-10.41,0,*6D
1547758933.84,61773,0.0,0.0,-7.97,-10.45,-10.57,0,*5E
1547758935.04,61774,0.0,0.0,-7.97,-10.45,-10.53,0,*5D
1547758936.28,61775,0.0,0.0,-7.97,-10.89,-10.71,0,*5C
1547758937.53,61776,0.0,0.0,-7.97,-11.37,-10.71,0,*5B
1547758938.77,61777,0.0,0.0,-7.97,-11.51,-10.53,0,*5A
1547758940.05,61778,0.0,0.0,-7.95,-11.37,-10.41,0,*54
1547758941.3,61779,0.0,0.0,-7.97,-11.29,-10.27,0,*58
1547758942.52,61780,0.0,0.0,-7.97,-11.41,-10.19,0,*5D
1547758943.76,61781,0.0,0.0,-7.97,-11.37,-10.01,0,*54
1547758944.99,61782,0.0,0.0,-7.97,-10.85,-9.61,0,*61
1547758946.24,61783,0.0,0.0,-7.97,-10.63,-9.49,0,*62
1547758947.5,61784,0.0,0.0,-7.97,-10.75,-9.45,0,*6E
1547758948.76,61785,0.0,0.0,-7.99,-10.57,-9.37,0,*64
1547758949.99,61786,0.0,0.0,-7.99,-10.31,-9.27,0,*66
1547758951.26,61787,0.0,0.0,-7.99,-9.83,-9.15,0,*57
1547758952.51,61788,0.0,0.0,-7.99,-9.67,-9.15,0,*52
1547758953.77,61789,0.0,0.0,-7.99,-9.41,-9.01,0,*52
1547758955.0,61790,0.0,0.0,-7.99,-9.23,-9.01,0,*5E
1547758956.26,61791,0.0,0.0,-7.99,-9.11,-8.97,0,*50
1547758957.5,61792,0.0,0.0,-7.99,-9.01,-8.89,0,*5D
1547758958.73,61793,0.0,0.0,-7.99,-8.97,-8.89,0,*52
1547758959.97,61794,0.0,0.0,-7.99,-8.89,-8.89,0,*5A
1547758961.2,61795,0.0,0.0,-7.99,-8.89,-8.89,0,*5B
1547758962.43,61796,0.0,0.0,-7.99,-8.97,-8.97,0,*58
1547758963.67,61797,0.0,0.0,-7.99,-8.89,-8.89,0,*59
1547758964.9,61798,0.0,0.0,-7.99,-8.89,-8.89,0,*56
1547758966.14,61799,0.0,0.0,-7.99,-8.97,-8.89,0,*58
1547758967.34,61800,0.0,0.0,-8.01,-8.89,-8.89,0,*56
1547758968.58,61801,0.0,0.0,-7.99,-8.89,-8.89,0,*59
1547758969.82,61802,0.0,0.0,-7.99,-8.89,-8.89,0,*5A
1547758971.06,61803,0.0,0.0,-7.99,-8.89,-8.89,0,*5B
1547758972.29,61804,0.0,0.0,-7.99,-8.89,-8.97,0,*53
1547758973.52,61805,0.0,0.0,-7.99,-8.89,-8.97,0,*52
1547758974.75,61806,0.0,0.0,-7.99,-8.97,-8.89,0,*51
1547758975.99,61807,0.0,0.0,-7.99,-8.89,-8.89,0,*5F
1547758977.23,61808,0.0,0.0,-7.99,-8.85,-8.89,0,*5C
1547758978.46,61809,0.0,0.0,-7.99,-8.85,-8.97,0,*52
1547758979.7,61810,0.0,0.0,-7.99,-8.85,-8.89,0,*55
1547758980.93,61811,0.0,0.0,-7.99,-8.97,-8.89,0,*57
1547758982.17,61812,0.0,0.0,-7.99,-8.89,-8.89,0,*5B
1547758983.4,61813,0.0,0.0,-7.99,-8.89,-8.89,0,*5A
1547758984.64,61814,0.0,0.0,-7.99,-8.89,-8.89,0,*5D
1547758985.85,61815,0.0,0.0,-7.97,-8.85,-8.85,0,*52
1547758987.08,61816,0.0,0.0,-7.99,-8.97,-8.89,0,*50
1547758988.32,61817,0.0,0.0,-7.99,-8.89,-8.89,0,*5E
1547758989.53,61818,0.0,0.0,-8.01,-8.89,-8.89,0,*5F
1547758990.76,61819,0.0,0.0,-7.99,-8.89,-8.97,0,*5F
1547758991.99,61820,0.0,0.0,-7.99,-8.97,-8.89,0,*55
1547758993.23,61821,0.0,0.0,-7.99,-8.89,-8.89,0,*5B
1547758994.44,61822,0.0,0.0,-8.01,-8.89,-8.89,0,*56
1547758995.67,61823,0.0,0.0,-7.99,-8.89,-8.89,0,*59
1547758996.91,61824,0.0,0.0,-7.99,-8.89,-8.89,0,*5E
1547758998.15,61825,0.0,0.0,-7.99,-8.89,-8.89,0,*5F
1547758999.38,61826,0.0,0.0,-7.99,-8.97,-8.89,0,*53
1547759000.59,61827,0.0,0.0,-7.97,-8.89,-8.89,0,*53
1547759001.79,61828,0.0,0.0,-7.97,-8.93,-8.85,0,*5B
1547759003.02,61829,0.0,0.0,-7.99,-8.97,-8.97,0,*53
1547759004.25,61830,0.0,0.0,-7.99,-8.89,-8.97,0,*54
1547759005.49,61831,0.0,0.0,-7.99,-8.89,-8.89,0,*5A
1547759006.7,61832,0.0,0.0,-8.01,-8.89,-8.89,0,*57
1547759007.94,61833,0.0,0.0,-7.99,-8.89,-8.85,0,*54
1547759009.16,61834,0.0,0.0,-7.97,-8.85,-8.81,0,*55
1547759010.39,61835,0.0,0.0,-7.97,-8.85,-8.81,0,*54
1547759011.61,61836,0.0,0.0,-7.97,-8.85,-8.81,0,*57
1547759012.81,61837,0.0,0.0,-7.97,-8.85,-8.75,0,*5D
1547759014.02,61838,0.0,0.0,-8.01,-8.89,-8.85,0,*51
1547759015.26,61839,0.0,0.0,-7.99,-8.89,-8.89,0,*52
1547759016.5,61840,0.0,0.0,-7.99,-8.89,-8.89,0,*5C
1547759017.73,61841,0.0,0.0,-7.99,-8.89,-8.89,0,*5D
1547759018.97,61842,0.0,0.0,-7.99,-8.85,-8.89,0,*52
1547759020.21,61843,0.0,0.0,-7.99,-8.85,-8.85,0,*5F
1547759021.45,61844,0.0,0.0,-7.99,-8.85,-8.89,0,*54
1547759022.65,61845,0.0,0.0,-7.97,-8.85,-8.85,0,*57
1547759023.89,61846,0.0,0.0,-7.99,-8.85,-8.85,0,*5A
1547759025.1,61847,0.0,0.0,-8.01,-8.85,-8.85,0,*55
1547759026.34,61848,0.0,0.0,-7.99,-8.89,-8.89,0,*54
1547759027.58,61849,0.0,0.0,-7.99,-8.89,-8.89,0,*55
1547759028.81,61850,0.0,0.0,-7.99,-8.89,-8.89,0,*5D
1547759030.05,61851,0.0,0.0,-7.99,-8.89,-8.89,0,*5C
1547759031.29,61852,0.0,0.0,-7.99,-8.85,-8.85,0,*5F
1547759032.53,61853,0.0,0.0,-7.99,-8.85,-8.85,0,*5E
1547759033.78,61854,0.0,0.0,-7.99,-8.85,-8.81,0,*5D
1547759035.03,61855,0.0,0.0,-7.99,-8.85,-8.81,0,*5C
1547759036.23,61856,0.0,0.0,-7.97,-8.75,-8.75,0,*55
1547759037.47,61857,0.0,0.0,-7.97,-8.81,-8.81,0,*54
1547759038.69,61858,0.0,0.0,-7.97,-8.81,-8.85,0,*5F
1547759039.93,61859,0.0,0.0,-7.97,-8.81,-8.81,0,*5A
1547759041.17,61860,0.0,0.0,-7.97,-8.81,-8.81,0,*50
1547759042.41,61861,0.0,0.0,-7.97,-8.81,-8.81,0,*51
1547759043.65,61862,0.0,0.0,-7.97,-8.81,-8.81,0,*52
1547759044.89,61863,0.0,0.0,-7.97,-8.81,-8.81,0,*53
1547759046.1,61864,0.0,0.0,-7.97,-8.85,-8.85,0,*54
1547759047.3,61865,0.0,0.0,-7.97,-8.85,-8.85,0,*55
1547759048.51,61866,0.0,0.0,-7.97,-8.85,-8.85,0,*56
1547759049.72,61867,0.0,0.0,-7.97,-8.85,-8.85,0,*57
1547759050.96,61868,0.0,0.0,-7.95,-8.81,-8.75,0,*51
1547759052.2,61869,0.0,0.0,-7.97,-8.81,-8.81,0,*59
1547759053.39,61870,0.0,0.0,-7.97,-8.75,-8.75,0,*51
1547759054.63,61871,0.0,0.0,-7.97,-8.81,-8.81,0,*50
1547759055.85,61872,0.0,0.0,-7.97,-8.75,-8.81,0,*58
1547759057.07,61873,0.0,0.0,-7.97,-8.81,-8.75,0,*59
1547759058.31,61874,0.0,0.0,-7.97,-8.81,-8.81,0,*55
1547759059.55,61875,0.0,0.0,-7.97,-8.81,-8.81,0,*54
1547759060.79,61876,0.0,0.0,-7.97,-8.81,-8.81,0,*57
1547759062.0,61877,0.0,0.0,-7.97,-8.81,-8.75,0,*5D
1547759063.23,61878,0.0,0.0,-7.97,-8.81,-8.85,0,*5D
1547759064.47,61879,0.0,0.0,-7.95,-8.75,-8.81,0,*51
1547759065.71,61880,0.0,0.0,-7.97,-8.81,-8.81,0,*5E
1547759066.92,61881,0.0,0.0,-7.97,-8.75,-8.81,0,*54
1547759068.14,61882,0.0,0.0,-7.97,-8.81,-8.75,0,*57
1547759069.38,61883,0.0,0.0,-7.97,-8.81,-8.81,0,*5D
1547759070.59,61884,0.0,0.0,-7.97,-8.81,-8.75,0,*51
1547759071.84,61885,0.0,0.0,-7.97,-8.81,-8.81,0,*5B
1547759073.07,61886,0.0,0.0,-7.97,-8.81,-8.81,0,*58
1547759074.29,61887,0.0,0.0,-7.97,-8.81,-8.75,0,*52
1547759075.51,61888,0.0,0.0,-7.97,-8.81,-8.75,0,*5D
1547759076.72,61889,0.0,0.0,-7.97,-8.75,-8.81,0,*5C
1547759077.96,61890,0.0,0.0,-7.97,-8.81,-8.81,0,*5F
1547759079.18,61891,0.0,0.0,-7.95,-8.75,-8.75,0,*5C
1547759080.4,61892,0.0,0.0,-7.97,-8.81,-8.85,0,*59
1547759081.62,61893,0.0,0.0,-7.95,-8.75,-8.75,0,*5E
1547759082.86,61894,0.0,0.0,-7.97,-8.81,-8.81,0,*5B
1547759084.08,61895,0.0,0.0,-7.95,-8.75,-8.75,0,*58
1547759085.32,61896,0.0,0.0,-7.97,-8.81,-8.81,0,*59
1547759086.53,61897,0.0,0.0,-7.95,-8.75,-8.75,0,*5A
1547759087.76,61898,0.0,0.0,-7.97,-8.81,-8.85,0,*53
1547759089.0,61899,0.0,0.0,-7.95,-8.75,-8.81,0,*5F
1547759090.21,61900,0.0,0.0,-7.95,-8.75,-8.75,0,*55
1547759091.45,61901,0.0,0.0,-7.97,-8.81,-8.81,0,*56
1547759092.65,61902,0.0,0.0,-7.97,-8.75,-8.75,0,*55
1547759093.89,61903,0.0,0.0,-7.97,-8.81,-8.81,0,*54
1547759095.13,61904,0.0,0.0,-7.97,-8.81,-8.81,0,*53
1547759096.37,61905,0.0,0.0,-7.95,-8.75,-8.81,0,*5B
1547759097.58,61906,0.0,0.0,-7.95,-8.75,-8.75,0,*53
1547759098.82,61907,0.0,0.0,-7.97,-8.81,-8.81,0,*50
1547759100.04,61908,0.0,0.0,-7.95,-8.75,-8.75,0,*5D
1547759101.28,61909,0.0,0.0,-7.97,-8.81,-8.81,0,*5E
1547759102.52,61910,0.0,0.0,-7.97,-8.81,-8.81,0,*56
1547759103.76,61911,0.0,0.0,-7.97,-8.81,-8.81,0,*57
1547759105.0,61912,0.0,0.0,-7.97,-8.81,-8.81,0,*54
1547759106.21,61913,0.0,0.0,-7.95,-8.75,-8.75,0,*57
1547759107.41,61914,0.0,0.0,-7.97,-8.85,-8.75,0,*5D
1547759108.64,61915,0.0,0.0,-7.97,-8.93,-8.81,0,*50
1547759109.86,61916,0.0,0.0,-7.97,-8.85,-8.81,0,*54
1547759111.1,61917,0.0,0.0,-7.95,-8.81,-8.75,0,*58
1547759112.32,61918,0.0,0.0,-7.97,-8.85,-8.81,0,*5A
1547759113.56,61919,0.0,0.0,-7.95,-8.81,-8.75,0,*56
1547759114.83,61920,0.0,0.0,-7.95,-8.81,-8.81,0,*57
1547759116.09,61921,0.0,0.0,-7.95,-8.81,-8.81,0,*56
1547759117.28,61922,0.0,0.0,-7.97,-8.75,-8.71,0,*53
1547759118.5,61923,0.0,0.0,-7.97,-8.81,-8.75,0,*5D
1547759119.74,61924,0.0,0.0,-7.95,-8.75,-8.81,0,*58
1547759120.96,61925,0.0,0.0,-7.95,-8.75,-8.75,0,*52
1547759122.18,61926,0.0,0.0,-7.97,-8.81,-8.85,0,*57
1547759123.44,61927,0.0,0.0,-7.95,-8.81,-8.81,0,*50
1547759124.65,61928,0.0,0.0,-7.97,-8.85,-8.85,0,*5D
1547759125.91,61929,0.0,0.0,-7.95,-8.81,-8.81,0,*5E
1547759127.12,61930,0.0,0.0,-7.97,-8.85,-8.85,0,*54
1547759128.36,61931,0.0,0.0,-7.97,-8.81,-8.81,0,*55
1547759129.59,61932,0.0,0.0,-7.95,-8.89,-8.89,0,*54
1547759130.79,61933,0.0,0.0,-7.97,-8.97,-8.93,0,*53
1547759131.99,61934,0.0,0.0,-7.97,-9.05,-9.05,0,*50
1547759133.2,61935,0.0,0.0,-7.97,-9.05,-9.05,0,*51
1547759134.4,61936,0.0,0.0,-7.97,-9.05,-9.05,0,*52
1547759135.63,61937,0.0,0.0,-7.95,-9.01,-9.01,0,*51
1547759136.86,61938,0.0,0.0,-7.97,-9.11,-9.05,0,*59
1547759138.09,61939,0.0,0.0,-7.97,-9.11,-9.05,0,*58
1547759139.34,61940,0.0,0.0,-7.95,-9.05,-9.15,0,*50
1547759140.62,61941,0.0,0.0,-7.95,-9.15,-9.15,0,*50
1547759141.81,61942,0.0,0.0,-7.97,-9.23,-9.23,0,*51
1547759143.04,61943,0.0,0.0,-7.97,-9.23,-9.11,0,*51
1547759144.24,61944,0.0,0.0,-7.97,-9.19,-9.05,0,*5A
1547759145.48,61945,0.0,0.0,-7.95,-9.05,-8.81,0,*59
1547759146.73,61946,0.0,0.0,-7.95,-9.01,-8.81,0,*5E
1547759147.94,61947,0.0,0.0,-7.97,-8.93,-8.85,0,*53
1547759149.2,61948,0.0,0.0,-7.95,-8.81,-8.81,0,*59
1547759150.41,61949,0.0,0.0,-7.97,-8.85,-8.85,0,*5A
1547759151.67,61950,0.0,0.0,-7.95,-8.81,-8.81,0,*50
1547759152.93,61951,0.0,0.0,-7.95,-8.81,-8.81,0,*51
1547759154.17,61952,0.0,0.0,-7.97,-8.81,-8.81,0,*50
1547759155.41,61953,0.0,0.0,-7.97,-8.81,-8.81,0,*51
1547759156.63,61954,0.0,0.0,-7.95,-8.75,-8.75,0,*54
1547759157.87,61955,0.0,0.0,-7.97,-8.81,-8.81,0,*57
1547759159.11,61956,0.0,0.0,-7.97,-8.81,-8.81,0,*54
1547759160.35,61957,0.0,0.0,-7.97,-8.81,-8.81,0,*55
1547759161.61,61958,0.0,0.0,-7.95,-8.81,-8.81,0,*58
1547759162.82,61959,0.0,0.0,-7.97,-8.85,-8.85,0,*5B
1547759164.03,61960,0.0,0.0,-7.97,-8.85,-8.85,0,*51
1547759165.29,61961,0.0,0.0,-7.95,-8.81,-8.81,0,*52
1547759166.55,61962,0.0,0.0,-7.95,-8.81,-8.81,0,*51
1547759167.76,61963,0.0,0.0,-7.97,-8.85,-8.85,0,*52
1547759168.97,61964,0.0,0.0,-7.97,-8.85,-8.85,0,*55
1547759170.18,61965,0.0,0.0,-7.97,-8.85,-8.85,0,*54
1547759171.4,61966,0.0,0.0,-7.97,-8.81,-8.85,0,*53
1547759172.64,61967,0.0,0.0,-7.95,-8.75,-8.81,0,*5F
1547759173.87,61968,0.0,0.0,-7.97,-8.81,-8.85,0,*5D
1547759175.07,61969,0.0,0.0,-7.97,-8.85,-8.93,0,*5F
1547759176.28,61970,0.0,0.0,-7.97,-8.85,-8.85,0,*50
1547759177.49,61971,0.0,0.0,-7.97,-8.93,-8.85,0,*56
1547759178.69,61972,0.0,0.0,-7.97,-8.93,-8.93,0,*52
1547759179.92,61973,0.0,0.0,-7.95,-8.89,-8.93,0,*5A
1547759181.15,61974,0.0,0.0,-7.97,-9.05,-9.11,0,*51
1547759182.38,61975,0.0,0.0,-7.95,-9.01,-9.01,0,*57
1547759183.58,61976,0.0,0.0,-7.97,-9.05,-8.97,0,*5C
1547759184.79,61977,0.0,0.0,-7.97,-8.85,-8.93,0,*50
1547759185.98,61978,0.0,0.0,-7.97,-8.97,-8.93,0,*5C
1547759187.23,61979,0.0,0.0,-7.95,-8.93,-8.81,0,*58
1547759188.46,61980,0.0,0.0,-7.95,-8.93,-8.89,0,*56
1547759189.66,61981,0.0,0.0,-7.97,-8.97,-8.97,0,*5E
1547759190.86,61982,0.0,0.0,-7.97,-8.97,-8.85,0,*5E
1547759192.11,61983,0.0,0.0,-7.95,-8.93,-8.81,0,*5D
1547759193.31,61984,0.0,0.0,-7.97,-8.93,-8.93,0,*5B
1547759194.56,61985,0.0,0.0,-7.95,-8.89,-8.81,0,*50
1547759195.79,61986,0.0,0.0,-7.95,-8.89,-8.89,0,*5B
1547759196.99,61987,0.0,0.0,-7.97,-8.93,-8.85,0,*5F
1547759198.2,61988,0.0,0.0,-7.97,-8.85,-8.85,0,*57
1547759199.41,61989,0.0,0.0,-7.97,-8.93,-8.85,0,*51
1547759200.62,61990,0.0,0.0,-7.97,-8.85,-8.85,0,*5E
1547759201.83,61991,0.0,0.0,-7.97,-8.85,-8.85,0,*5F
1547759203.09,61992,0.0,0.0,-7.95,-8.81,-8.81,0,*5E
1547759204.31,61993,0.0,0.0,-7.97,-8.85,-8.81,0,*59
1547759205.54,61994,0.0,0.0,-7.95,-8.89,-8.75,0,*5B
1547759206.78,61995,0.0,0.0,-7.95,-8.81,-8.75,0,*52
1547759208.0,61996,0.0,0.0,-7.97,-8.85,-8.81,0,*5C
1547759209.22,61997,0.0,0.0,-7.97,-8.85,-8.81,0,*5D
1547759210.49,61998,0.0,0.0,-7.95,-8.81,-8.81,0,*54
1547759211.69,61999,0.0,0.0,-7.97,-8.85,-8.85,0,*57
1547759212.96,62000,0.0,0.0,-7.95,-8.81,-8.81,0,*5F
1547759214.17,62001,0.0,0.0,-7.97,-8.85,-8.85,0,*5C
1547759215.37,62002,0.0,0.0,-7.97,-8.93,-8.93,0,*5F
1547759216.58,62003,0.0,0.0,-7.97,-8.85,-8.85,0,*5E
1547759217.83,62004,0.0,0.0,-7.95,-8.81,-8.89,0,*53
1547759219.03,62005,0.0,0.0,-7.97,-8.85,-8.85,0,*58
1547759220.24,62006,0.0,0.0,-7.97,-8.93,-8.85,0,*5C
1547759221.44,62007,0.0,0.0,-7.97,-8.85,-8.93,0,*5D
1547759222.65,62008,0.0,0.0,-7.97,-8.93,-8.93,0,*55
1547759223.9,62009,0.0,0.0,-7.95,-8.89,-8.81,0,*5E
1547759225.1,62010,0.0,0.0,-7.97,-8.85,-8.85,0,*5C
1547759226.31,62011,0.0,0.0,-7.97,-8.97,-8.85,0,*5E
1547759227.51,62012,0.0,0.0,-7.97,-8.85,-8.85,0,*5E
1547759228.72,62013,0.0,0.0,-7.97,-8.93,-8.85,0,*58
1547759229.93,62014,0.0,0.0,-7.97,-8.93,-8.93,0,*58
1547759231.13,62015,0.0,0.0,-7.97,-8.97,-8.93,0,*5D
1547759232.35,62016,0.0,0.0,-7.97,-9.05,-9.11,0,*5F
1547759233.58,62017,0.0,0.0,-7.97,-9.11,-9.05,0,*5E
1547759234.78,62018,0.0,0.0,-7.97,-9.05,-8.97,0,*5E
1547759235.99,62019,0.0,0.0,-7.97,-9.05,-8.97,0,*5F
1547759237.18,62020,0.0,0.0,-7.97,-8.97,-9.05,0,*55
1547759238.39,62021,0.0,0.0,-7.97,-9.05,-8.97,0,*54
1547759239.59,62022,0.0,0.0,-7.97,-9.05,-9.05,0,*5D
1547759240.82,62023,0.0,0.0,-7.97,-9.11,-9.19,0,*54
1547759242.05,62024,0.0,0.0,-7.97,-9.11,-9.05,0,*5E
1547759243.27,62025,0.0,0.0,-7.97,-9.11,-8.97,0,*55
1547759244.47,62026,0.0,0.0,-7.97,-9.05,-8.97,0,*53
1547759245.68,62027,0.0,0.0,-7.97,-8.97,-8.85,0,*5B
1547759246.88,62028,0.0,0.0,-7.97,-8.93,-8.93,0,*57
1547759248.14,62029,0.0,0.0,-7.99,-9.11,-8.89,0,*58
1547759249.37,62030,0.0,0.0,-7.99,-8.89,-8.97,0,*5F
1547759250.61,62031,0.0,0.0,-7.99,-8.97,-8.89,0,*5E
1547759251.84,62032,0.0,0.0,-7.99,-8.89,-8.89,0,*52
1547759253.08,62033,0.0,0.0,-7.99,-8.89,-8.89,0,*53
1547759254.32,62034,0.0,0.0,-7.99,-8.89,-8.89,0,*54
1547759255.56,62035,0.0,0.0,-7.99,-8.85,-8.85,0,*55
1547759256.79,62036,0.0,0.0,-7.99,-8.85,-8.85,0,*56
1547759258.03,62037,0.0,0.0,-7.99,-8.85,-8.85,0,*57
1547759259.27,62038,0.0,0.0,-7.97,-8.81,-8.81,0,*56
1547759260.49,62039,0.0,0.0,-7.97,-8.81,-8.75,0,*5C
1547759261.73,62040,0.0,0.0,-7.97,-8.81,-8.81,0,*59
1547759262.96,62041,0.0,0.0,-7.99,-8.85,-8.85,0,*56
1547759264.22,62042,0.0,0.0,-7.99,-8.85,-8.81,0,*51
1547759265.44,62043,0.0,0.0,-7.97,-8.75,-8.81,0,*51
1547759266.67,62044,0.0,0.0,-7.97,-8.81,-8.81,0,*5D
1547759267.91,62045,0.0,0.0,-7.97,-8.81,-8.81,0,*5C
1547759269.15,62046,0.0,0.0,-7.97,-8.81,-8.81,0,*5F
1547759270.39,62047,0.0,0.0,-7.97,-8.81,-8.81,0,*5E
1547759271.63,62048,0.0,0.0,-7.97,-8.81,-8.81,0,*51
1547759272.84,62049,0.0,0.0,-7.97,-8.85,-8.93,0,*57
1547759274.05,62050,0.0,0.0,-7.97,-8.85,-8.85,0,*58
1547759275.25,62051,0.0,0.0,-7.97,-8.93,-8.85,0,*5E
1547759276.49,62052,0.0,0.0,-7.99,-8.89,-8.89,0,*54
1547759277.73,62053,0.0,0.0,-7.99,-8.89,-8.97,0,*5A
1547759278.93,62054,0.0,0.0,-7.97,-8.93,-8.85,0,*5B
1547759280.14,62055,0.0,0.0,-7.97,-8.85,-8.93,0,*5A
1547759281.35,62056,0.0,0.0,-7.97,-8.93,-8.85,0,*59
1547759282.55,62057,0.0,0.0,-7.97,-9.05,-8.93,0,*51
1547759283.75,62058,0.0,0.0,-7.97,-9.05,-8.93,0,*5E
1547759284.98,62059,0.0,0.0,-7.97,-9.15,-9.05,0,*50
1547759286.21,62060,0.0,0.0,-7.97,-9.19,-9.11,0,*53
1547759287.43,62061,0.0,0.0,-7.97,-9.31,-9.11,0,*58
1547759288.69,62062,0.0,0.0,-7.97,-9.37,-9.11,0,*5D
1547759289.88,62063,0.0,0.0,-7.97,-9.23,-9.19,0,*51
1547759291.08,62064,0.0,0.0,-7.97,-9.23,-9.05,0,*5B
1547759292.31,62065,0.0,0.0,-7.97,-9.11,-8.97,0,*51
1547759293.54,62066,0.0,0.0,-7.97,-9.11,-8.97,0,*52
1547759294.74,62067,0.0,0.0,-7.97,-9.05,-9.05,0,*5C
1547759295.97,62068,0.0,0.0,-7.97,-9.11,-9.05,0,*56
1547759297.2,62069,0.0,0.0,-7.97,-9.11,-8.97,0,*5D
1547759298.41,62070,0.0,0.0,-7.97,-9.01,-9.01,0,*5A
1547759299.66,62071,0.0,0.0,-7.95,-8.93,-8.81,0,*5A
1547759300.85,62072,0.0,0.0,-7.97,-8.97,-8.97,0,*58
1547759302.05,62073,0.0,0.0,-7.97,-8.97,-8.93,0,*5D
1547759303.26,62074,0.0,0.0,-7.97,-8.93,-8.85,0,*59
1547759304.49,62075,0.0,0.0,-7.99,-8.97,-8.89,0,*5E
1547759305.7,62076,0.0,0.0,-7.97,-8.93,-8.85,0,*5B
1547759306.91,62077,0.0,0.0,-7.97,-8.85,-8.85,0,*5D
1547759308.11,62078,0.0,0.0,-7.97,-8.85,-8.85,0,*52
1547759309.38,62079,0.0,0.0,-7.95,-8.81,-8.81,0,*51
1547759310.59,62080,0.0,0.0,-7.97,-8.85,-8.85,0,*55
1547759311.81,62081,0.0,0.0,-7.97,-8.85,-8.81,0,*50
1547759313.01,62082,0.0,0.0,-7.97,-8.85,-8.75,0,*58
1547759314.25,62083,0.0,0.0,-7.95,-8.81,-8.75,0,*5F
1547759315.47,62084,0.0,0.0,-7.97,-8.85,-8.81,0,*55
1547759316.71,62085,0.0,0.0,-7.99,-8.89,-8.85,0,*52
1547759317.95,62086,0.0,0.0,-7.95,-8.81,-8.75,0,*5A
1547759319.17,62087,0.0,0.0,-7.95,-8.75,-8.75,0,*50
1547759320.39,62088,0.0,0.0,-7.97,-8.85,-8.81,0,*59
1547759321.63,62089,0.0,0.0,-7.97,-8.81,-8.81,0,*5C
1547759322.85,62090,0.0,0.0,-7.95,-8.75,-8.75,0,*56
1547759324.09,62091,0.0,0.0,-7.97,-8.81,-8.81,0,*55
1547759325.33,62092,0.0,0.0,-7.95,-8.81,-8.75,0,*5F
1547759326.54,62093,0.0,0.0,-7.95,-8.75,-8.75,0,*55
1547759327.76,62094,0.0,0.0,-7.97,-8.75,-8.81,0,*5B
1547759328.97,62095,0.0,0.0,-7.95,-8.75,-8.75,0,*53
1547759330.19,62096,0.0,0.0,-7.95,-8.75,-8.75,0,*50
1547759331.41,62097,0.0,0.0,-7.95,-8.75,-8.75,0,*51
1547759332.65,62098,0.0,0.0,-7.97,-8.81,-8.81,0,*5C
1547759333.87,62099,0.0,0.0,-7.97,-8.81,-8.85,0,*59
1547759335.08,62100,0.0,0.0,-7.97,-8.85,-8.85,0,*5C
1547759336.29,62101,0.0,0.0,-7.97,-8.85,-8.85,0,*5D
1547759337.5,62102,0.0,0.0,-7.97,-8.85,-8.85,0,*5E
1547759338.7,62103,0.0,0.0,-7.97,-8.93,-8.85,0,*58
1547759339.97,62104,0.0,0.0,-7.95,-8.81,-8.81,0,*5A
1547759341.17,62105,0.0,0.0,-7.97,-8.93,-8.85,0,*5E
1547759342.41,62106,0.0,0.0,-7.97,-8.81,-8.81,0,*5A
1547759343.66,62107,0.0,0.0,-7.95,-8.89,-8.81,0,*51
1547759344.92,62108,0.0,0.0,-7.95,-8.81,-8.81,0,*56
1547759346.19,62109,0.0,0.0,-7.95,-8.81,-8.81,0,*57
1547759347.39,62110,0.0,0.0,-7.97,-8.93,-8.93,0,*5D
1547759348.59,62111,0.0,0.0,-7.97,-8.93,-8.93,0,*5C
1547759349.8,62112,0.0,0.0,-7.97,-8.89,-8.89,0,*5F
1547759351.01,62113,0.0,0.0,-7.97,-8.93,-8.89,0,*55
1547759352.22,62114,0.0,0.0,-7.97,-8.89,-8.89,0,*59
1547759353.44,62115,0.0,0.0,-7.97,-8.81,-8.85,0,*5C
1547759354.65,62116,0.0,0.0,-7.97,-8.85,-8.85,0,*5B
1547759355.87,62117,0.0,0.0,-7.97,-8.85,-8.81,0,*5E
1547759357.08,62118,0.0,0.0,-7.97,-8.85,-8.85,0,*55
1547759358.32,62119,0.0,0.0,-7.95,-8.81,-8.75,0,*5D
1547759359.54,62120,0.0,0.0,-7.97,-8.85,-8.81,0,*5A
1547759360.78,62121,0.0,0.0,-7.95,-8.81,-8.75,0,*56
1547759362.01,62122,0.0,0.0,-7.97,-8.85,-8.81,0,*58
1547759363.22,62123,0.0,0.0,-7.97,-8.85,-8.85,0,*5D
1547759364.42,62124,0.0,0.0,-7.97,-8.93,-8.93,0,*5A